Hourly Data Report for October 02, 2014

All times are specified in Local Standard Time (LST). Add 1 hour to adjust for Daylight Saving Time where and when it is observed.

ST LEONARD CS
NEW BRUNSWICK

47°09'28.050" N
67°49'55.014" W
245.00 m
810I001
71019
WIY

Download Data

Hourly Data (October 2014)
Hourly Data Report for October 2, 2014
Temp Definition
°C
Dew Point Temp Definition
°C
Rel Hum Definition
%
Wind Dir Definition
10's deg

Wind Spd Definition
km/h
Visibility Definition
km
Stn Press Definition
kPa
Hmdx Definition


Wind Chill Definition


Weather Definition


TIME
00:00 4.7 4.1 96 8 2   99.48     LegendNANA
01:00 3.5 3.2 98 5 2   99.49     LegendNANA
02:00 2.3 2.0 98 6 3   99.49     LegendNANA
03:00 2.4 2.1 98 2 2   99.50     LegendNANA
04:00 0.1 -0.1 99 36 2   99.50     LegendNANA
05:00 0.3 0.2 99 2 3   99.52     LegendNANA
06:00 0.3 0.3 100   0   99.57     LegendNANA
07:00 0.3 0.3 100 17 LegendMM   99.64     LegendNANA
08:00 2.1 2.1 100   0   99.70     LegendNANA
09:00 3.7 3.5 99 10 1   99.75     LegendNANA
10:00 8.8 5.2 78 11 1   99.71     LegendNANA
11:00 11.3 4.0 61 13 3   99.62     LegendNANA
12:00 12.9 4.2 55 10 3   99.56     LegendNANA
13:00 14.2 4.1 50 9 4   99.50     LegendNANA
14:00 15.4 4.4 48 11 3   99.48     LegendNANA
15:00 15.8 5.6 51 4 3   99.42     LegendNANA
16:00 15.7 5.1 49 9 3   99.42     LegendNANA
17:00 15.6 6.1 53 7 1   99.36     LegendNANA
18:00 12.6 7.7 72 6 1   99.34     LegendNANA
19:00 9.9 6.8 81 3 3   99.38     LegendNANA
20:00 7.8 6.2 90 7 3   99.41     LegendNANA
21:00 7.6 6.2 90 8 2   99.44     LegendNANA
22:00 7.6 5.8 89 11 3   99.45     LegendNANA
23:00 6.2 5.0 93 10 2   99.44     LegendNANA

Notes on Data Quality.

Legend

  • E = Estimated
  • M = Missing
  • NA = Not Available
  • ‡ = Partner data that is not subject to review by the National Climate Archives
Date modified: